Flag for Germany Weather past 2 weeks in Nuremberg, Bavaria, Germany

36 °F

Partly cloudy.

Feels Like: 31 °F
Forecast: 46 / 48 °F
Wind: 6 mph from Southeast

Location: Nuernberg

Current Time: Nov 29, 2015 at 5:01:38 AM

Latest Report: Nov 29, 2015 at 4:20 AM

Visibility: N/A

Pressure: 30.04 "Hg

Humidity: 81%

Dew point: 30 °F

Location of NurembergLocation

Historic Weather in Nuremberg — Graph


Nuremberg temperature yesterday

Maximum temperature yesterday: 37 °F (at 4:20 PM)
Minimum temperature yesterday: 27 °F (at 3:20 AM)
Average temperature yesterday: 33 °F

Past Weeks' High & Low Weather Summary

High61 °F (Nov 16, 12:50 PM)100% (Nov 20, 9:50 PM)30.39 "Hg (Nov 20, 9:50 PM)
Low27 °F (Nov 28, 3:20 AM)31% (Nov 16, 1:20 PM)29.42 "Hg (Nov 21, 12:20 PM)
Average42 °F84%29.94 "Hg
* Reported Nov 14 3:20 AM — Nov 29 3:20 AM, Nuremberg, Weather by CustomWeather, © 2015

Note: Actual official high and low records may vary slightly from our data, if they occured in-between our weather recording intervals... More about our weather records


Nuremberg weather history for previous 24 hours

Time TempWeatherWind HumidityBarometerVisibility
3:20 AM
Sun, Nov 29
34 °FPassing clouds.6 mph87%30.04 "HgN/A
2:50 AM34 °FClear.6 mph87%30.07 "Hg10 mi
2:20 AM34 °FClear.6 mph87%30.07 "Hg10 mi
1:50 AM34 °FPassing clouds.5 mph87%30.09 "HgN/A
1:20 AM36 °FPassing clouds.6 mph81%30.09 "HgN/A
12:50 AM36 °FPassing clouds.8 mph81%30.09 "HgN/A
12:20 AM36 °FClear.9 mph81%30.09 "Hg10 mi
11:50 PM
Sat, Nov 28
36 °FPassing clouds.6 mph81%30.09 "HgN/A
10:50 PM36 °FClear.5 mph87%30.09 "Hg10 mi
10:20 PM36 °FPassing clouds.5 mph87%30.09 "HgN/A
9:20 PM36 °FPassing clouds.9 mph87%30.09 "HgN/A
8:50 PM36 °FPassing clouds.9 mph87%30.09 "HgN/A
8:20 PM36 °FPassing clouds.9 mph93%30.09 "HgN/A
7:50 PM36 °FPassing clouds.9 mph87%30.09 "HgN/A
7:20 PM36 °FPassing clouds.9 mph93%30.07 "HgN/A
6:50 PM36 °FPassing clouds.7 mph87%30.07 "HgN/A
6:20 PM36 °FPartly cloudy.7 mph93%30.07 "HgN/A
5:50 PM36 °FPartly cloudy.8 mph93%30.07 "HgN/A
5:20 PM37 °FPartly cloudy.5 mph87%30.04 "HgN/A
4:50 PM36 °FPartly cloudy.8 mph93%30.04 "HgN/A
4:20 PM37 °FBroken clouds.9 mph87%30.01 "HgN/A
3:50 PM36 °FLight rain. Partly sunny.9 mph93%30.01 "HgN/A
3:20 PM36 °FLight rain. Partly sunny.10 mph93%30.01 "HgN/A
2:50 PM36 °FLight rain. Partly sunny.7 mph93%29.98 "HgN/A
2:20 PM36 °FPartly sunny.6 mph93%29.98 "HgN/A
1:50 PM36 °FPartly sunny.9 mph93%29.95 "HgN/A
1:20 PM36 °FPartly sunny.8 mph93%29.92 "HgN/A
12:50 PM34 °FPartly sunny.3 mph100%29.92 "HgN/A
12:20 PM34 °FSnow flurries. Partly sunny.5 mph100%29.89 "Hg4 mi
11:50 AM32 °FLight snow. Partly sunny.6 mph100%29.89 "Hg3 mi
11:20 AM32 °FSnow. Mostly cloudy.5 mph100%29.89 "Hg1 mi
10:50 AM32 °FSnow. Mostly cloudy.5 mph100%29.89 "Hg1 mi
10:20 AM32 °FSnow. Mostly cloudy.5 mph100%29.89 "Hg1 mi
9:50 AM32 °FSnow. Mostly cloudy.5 mph93%29.86 "Hg1 mi
9:20 AM32 °FSnow. Partly sunny.6 mph93%29.86 "Hg1 mi
8:50 AM32 °FSnow. Broken clouds.6 mph93%29.86 "Hg1 mi
8:20 AM32 °FLight snow. Partly sunny.6 mph87%29.86 "Hg3 mi
7:20 AM32 °FPassing clouds.6 mph87%29.86 "HgN/A
6:50 AM32 °FPassing clouds.3 mph87%29.86 "HgN/A
6:20 AM30 °FPassing clouds.6 mph93%29.86 "HgN/A
5:50 AM30 °FPassing clouds.3 mph86%29.86 "Hg5 mi
5:20 AM30 °FPassing clouds.5 mph93%29.89 "Hg5 mi
Weather by CustomWeather, © 2015

See weather overviewHow to use our weather pages